[[{"header":{"parameterUnit":"m.s-1","parameterCategory":1,"la1":30.2991,"la2":30.254,"lo1":-89.0895,"lo2":-89.0444,"dy":0.0017,"dx":0.0017,"nx":28,"ny":28,"refTime":"2023-08-19T09:00:00:Z","depth":0,"parameterNumber":2,"parameterNumberName":"U-component_of_WINDS"},"data":[0,0,0,0,0,0,0,0,0,0,0,0,0,0,0,0,0,0,0,0,0,0,0,0,0,0,0,0,0,0,0,0,0,0,0,0,0,0,0,0,0,0,0,0,0,0,0,0,0,0,0,0,0,0,0,0,0,0,0.0473,0.0473,0,0.0399,0.0398,0.0397,0.0327,0.0326,0.0326,0.0325,0.0251,0.025,0.0249,0,0,0,0,0,0,0,0,0,0,0,0,0,0.0556,0.0555,0.0474,0.0473,0.0472,0.0399,0.0398,0.0397,0.0327,0.0326,0.0325,0.0324,0.0251,0.025,0.0249,0,0,0,0,0,0,0,0,0,0,0,0,0,0.0505,0.0554,0.0474,0.0428,0.0423,0.0399,0.0398,0.0397,0.0328,0.0326,0.0325,0.0324,0.0252,0.025,0.0249,0.0264,0,0,0.0243,0.0243,0,0,0,0,0,0,0,0,0.0508,0.0502,0.0436,0.0431,0.0426,0.0371,0.04,0.0353,0.0328,0.0364,0.0325,0.0323,0.0292,0.0287,0.0276,0.0261,0.0258,0.0243,0.0242,0.0241,0.0241,0,0,0,0,0,0,0,0.0511,0.0505,0.0444,0.0435,0.0429,0.0411,0.0403,0.0391,0.0337,0.0361,0.0356,0.0348,0.0289,0.0278,0.0274,0.0257,0.0243,0.0242,0.0241,0.024,0.0248,0.0249,0,0,0,0,0,0,0.0522,0.0508,0.0446,0.0442,0.0464,0.0411,0.0401,0.039,0.0336,0.0327,0.0349,0.0345,0.0282,0.0276,0.0271,0.0284,0.0241,0.024,0.0239,0.0247,0.0248,0.025,0,0,0,0,0,0,0.0524,0.0517,0.0449,0.0473,0.0463,0.0411,0.0399,0.0389,0.0378,0.0327,0.0317,0.0347,0.028,0.0273,0.0266,0.0281,0.0239,0.0238,0.0245,0.0247,0.0249,0.0312,0,0,0,0,0,0,0.0526,0.0518,0.0524,0.0474,0.0462,0.0446,0.04,0.0389,0.0375,0.0368,0.0323,0.0314,0.0279,0.0269,0.0264,0.0278,0.0236,0.0244,0.0246,0.0248,0.0309,0.0316,0.0322,0,0,0,0,0,0.053,0.0546,0.0524,0.0517,0.0468,0.0447,0.044,0.0398,0.0376,0.0381,0.0348,0.0316,0.028,0.0269,0.0263,0.0276,0.0243,0.0246,0.0248,0.0305,0.0315,0.0322,0,0,0,0,0,0,0.06,0.0538,0.0514,0.0514,0.0486,0.0435,0.044,0.0409,0.0387,0.0382,0.0332,0.0322,0.032,0.0297,0.0286,0.0287,0.0257,0.0259,0.0302,0.031,0.0317,0.0323,0.0235,0,0,0,0,0,0.0615,0.0602,0.0549,0.0555,0.0541,0.0493,0.0482,0.0452,0.0421,0.0409,0.0376,0.0347,0.0329,0.0319,0.0299,0.0305,0.0293,0.0311,0.0318,0.0324,0.0326,0.0325,0.0332,0.0259,0.0259,0.0259,0,0,0.0647,0.0612,0.0607,0.0568,0.0542,0.053,0.0484,0.0473,0.0463,0.0408,0.0397,0.0372,0.0337,0.0335,0.0333,0.0316,0.0343,0.0327,0.0332,0.0331,0.0328,0.0335,0.0342,0.0261,0.026,0.026,0,0,0.0698,0.0671,0.0671,0.0646,0.0607,0.0575,0.0575,0.0527,0.0508,0.0497,0.0454,0.0442,0.0412,0.0388,0.0372,0.0412,0.038,0.0407,0.0443,0.0443,0.0448,0.0453,0.0466,0.0471,0.0409,0.0409,0.0409,0,0.0743,0.0722,0.0676,0.0667,0.065,0.0597,0.0597,0.0575,0.0532,0.0522,0.0504,0.0464,0.0437,0.0428,0.0437,0.0426,0.0424,0.0412,0.0451,0.0456,0.0459,0.0471,0.0476,0.0413,0.0412,0.0412,0.0412,0,0.0778,0.0765,0.0769,0.0728,0.0712,0.0707,0.066,0.0649,0.0619,0.0589,0.0577,0.0542,0.0514,0.0509,0.0482,0.0496,0.0486,0.0461,0.0429,0.0471,0.048,0.0485,0.0418,0.0416,0.0415,0.0415,0,0,0.0874,0.0804,0.0807,0.0786,0.0738,0.0727,0.0719,0.069,0.0681,0.0653,0.0645,0.062,0.0595,0.0577,0.0545,0.0545,0.0576,0.0519,0.0517,0.053,0.0588,0.0607,0.0613,0.0555,0.0556,0.0556,0.0591,0,0.0916,0.0899,0.0855,0.0851,0.0837,0.0785,0.0778,0.0748,0.0719,0.0702,0.067,0.0652,0.0621,0.061,0.0607,0.0573,0.0587,0.057,0.0547,0.0547,0.0557,0.0619,0.064,0.0674,0.0594,0.0595,0.0595,0,0.0964,0.0937,0.0931,0.0882,0.0874,0.0869,0.0837,0.0823,0.0787,0.0765,0.0744,0.0708,0.0697,0.0667,0.065,0.0639,0.0627,0.0609,0.0609,0.0605,0.0573,0.0616,0.0684,0.0689,0.0601,0.0601,0.06,0,0.1032,0.0995,0.0986,0.097,0.0913,0.091,0.0886,0.0848,0.0833,0.0806,0.0795,0.0767,0.0752,0.0732,0.0689,0.0672,0.0676,0.0644,0.0658,0.0659,0.0661,0.0661,0.0727,0.0655,0.0655,0.0654,0.0654,0,0.1084,0.1082,0.1015,0.101,0.1005,0.0955,0.0953,0.0924,0.0891,0.0878,0.0833,0.0822,0.0767,0.075,0.0717,0.0707,0.0701,0.0683,0.0674,0.0687,0.0689,0.0678,0.0674,0.0656,0.0655,0.0655,0.0655,0,0.1159,0.1115,0.1101,0.1047,0.1033,0.1032,0.0986,0.0978,0.0945,0.093,0.0924,0.0872,0.085,0.0805,0.0771,0.0748,0.0746,0.0731,0.0757,0.0752,0.0767,0.0766,0.0828,0.0833,0.0759,0.0759,0.076,0,0.1195,0.1192,0.1137,0.1125,0.1102,0.1083,0.1067,0.1017,0.1001,0.0959,0.0956,0.0929,0.0905,0.0872,0.0831,0.0804,0.0788,0.0811,0.0783,0.0795,0.0786,0.0787,0.0786,0.0817,0.0818,0.0819,0.082,0,0.1263,0.124,0.1217,0.1186,0.1167,0.1141,0.1112,0.1105,0.1048,0.1033,0.1008,0.0989,0.0953,0.0927,0.0893,0.0868,0.0835,0.0829,0.083,0.0843,0.0858,0.0849,0.0773,0.0828,0.0827,0.0826,0.0826,0.0826,0.1318,0.1312,0.1272,0.1247,0.122,0.1194,0.1183,0.1148,0.1126,0.1092,0.1064,0.1041,0.1003,0.0954,0.0932,0.0913,0.0897,0.09,0.09,0.0901,0.0906,0.0861,0.0907,0.0907,0.0906,0.0906,0.0906,0,0.1382,0.1353,0.1331,0.1291,0.1272,0.124,0.1206,0.1192,0.1172,0.114,0.1116,0.1087,0.1061,0.1018,0.0988,0.0981,0.0965,0.0975,0.0975,0.0969,0.0923,0.0924,0.0988,0.0988,0.0988,0.0988,0.0988,0.0988,0.1413,0.1401,0.1373,0.1346,0.1317,0.1293,0.1276,0.1251,0.1225,0.1194,0.1171,0.1143,0.1105,0.1072,0.1046,0.1034,0.1025,0.104,0.1023,0.098,0.0973,0.0965,0.0966,0.1038,0.1038,0.107,0.1071,0.1071]},{"header":{"parameterUnit":"m.s-1","parameterCategory":1,"la1":30.2991,"la2":30.254,"lo1":-89.0895,"lo2":-89.0444,"dy":0.0017,"dx":0.0017,"nx":28,"ny":28,"refTime":"2023-08-19T09:00:00:Z","depth":0,"parameterNumber":3,"parameterNumberName":"V-component_of_WINDS"},"data":[0,0,0,0,0,0,0,0,0,0,0,0,0,0,0,0,0,0,0,0,0,0,0,0,0,0,0,0,0,0,0,0,0,0,0,0,0,0,0,0,0,0,0,0,0,0,0,0,0,0,0,0,0,0,0,0,0,0,4.8454,4.8454,0,4.8435,4.8435,4.8435,4.8345,4.8343,4.8341,4.8339,4.832,4.8322,4.8323,0,0,0,0,0,0,0,0,0,0,0,0,0,4.8414,4.8416,4.8454,4.8454,4.8454,4.8435,4.8435,4.8435,4.8346,4.8343,4.8341,4.8338,4.832,4.8322,4.8323,0,0,0,0,0,0,0,0,0,0,0,0,0,4.8417,4.8416,4.8454,4.8407,4.8403,4.8436,4.8435,4.8435,4.8346,4.8343,4.834,4.8337,4.8319,4.8322,4.8324,4.8401,0,0,4.833,4.8331,0,0,0,0,0,0,0,0,4.8417,4.8419,4.8414,4.8411,4.8406,4.839,4.8414,4.8423,4.8347,4.8368,4.8339,4.8336,4.8346,4.8346,4.8349,4.84,4.8399,4.8331,4.8332,4.8333,4.8333,0,0,0,0,0,0,0,4.8417,4.8419,4.8447,4.8414,4.8409,4.8387,4.8384,4.8415,4.8375,4.8366,4.8359,4.8358,4.8343,4.8347,4.8348,4.8399,4.8331,4.8332,4.8334,4.8335,4.8511,4.8514,0,0,0,0,0,0,4.8424,4.842,4.8447,4.8446,4.8404,4.8391,4.8387,4.8398,4.8374,4.8368,4.8361,4.8354,4.8345,4.8346,4.8347,4.8435,4.8333,4.8335,4.8336,4.8507,4.8512,4.8515,0,0,0,0,0,0,4.8423,4.8427,4.8448,4.8431,4.8432,4.8395,4.8408,4.8399,4.8403,4.8371,4.8363,4.8373,4.8343,4.8344,4.8388,4.8433,4.8336,4.8338,4.8504,4.8509,4.8513,4.8611,0,0,0,0,0,0,4.8422,4.8427,4.8456,4.8432,4.8434,4.8489,4.841,4.8401,4.8407,4.8398,4.838,4.8374,4.834,4.8385,4.839,4.8434,4.834,4.8499,4.8506,4.8512,4.8604,4.8619,4.8632,0,0,0,0,0,4.8421,4.8484,4.8458,4.8461,4.8468,4.8492,4.8492,4.8453,4.8411,4.844,4.8419,4.8374,4.8428,4.839,4.8395,4.8441,4.8496,4.8504,4.8511,4.8597,4.8616,4.8632,0,0,0,0,0,0,4.8514,4.848,4.845,4.8508,4.8503,4.8477,4.8511,4.8474,4.8481,4.8472,4.8423,4.842,4.8471,4.846,4.8419,4.8514,4.8454,4.8463,4.8518,4.8535,4.8549,4.855,4.8341,0,0,0,0,0,4.8541,4.8563,4.8532,4.8586,4.8585,4.8549,4.8558,4.8528,4.8521,4.8519,4.8501,4.8497,4.8512,4.8524,4.8536,4.8603,4.8597,4.8636,4.865,4.8662,4.867,4.8704,4.8721,4.854,4.854,4.854,0,0,4.8597,4.8581,4.8598,4.8604,4.8597,4.8621,4.8548,4.8576,4.8593,4.8523,4.8563,4.855,4.8542,4.8597,4.8621,4.859,4.8719,4.8672,4.8681,4.8683,4.8713,4.873,4.8746,4.8545,4.8544,4.8543,0,0,4.871,4.8702,4.8745,4.8739,4.873,4.8705,4.8716,4.8696,4.8684,4.8724,4.8671,4.8692,4.872,4.8716,4.8718,4.8832,4.8791,4.8838,4.8911,4.8944,4.8958,4.8971,4.901,4.9025,4.8846,4.8846,4.8846,0,4.8781,4.8814,4.8772,4.8803,4.8807,4.8746,4.8789,4.8786,4.8782,4.8786,4.8752,4.8786,4.8777,4.883,4.8858,4.8862,4.8872,4.8838,4.896,4.8972,4.8983,4.902,4.9035,4.8852,4.8851,4.885,4.885,0,4.8901,4.8926,4.8962,4.8958,4.8967,4.9005,4.8968,4.8982,4.8952,4.8931,4.8972,4.8959,4.8967,4.8978,4.8949,4.9028,4.9009,4.8968,4.8907,4.9006,4.904,4.9054,4.886,4.8858,4.8856,4.8855,0,0,4.9071,4.9044,4.9058,4.9056,4.9042,4.9059,4.9095,4.9103,4.9116,4.9115,4.9143,4.9169,4.9131,4.9134,4.9104,4.9134,4.9224,4.9089,4.9088,4.9114,4.9309,4.9338,4.9355,4.9198,4.92,4.9202,4.9309,0,4.9178,4.9236,4.9199,4.9262,4.9284,4.9227,4.9257,4.9252,4.9234,4.925,4.9231,4.9249,4.9199,4.92,4.9227,4.9207,4.9262,4.9199,4.9222,4.9224,4.9224,4.9373,4.9404,4.9505,4.9322,4.9324,4.9326,0,4.9311,4.9316,4.9381,4.9363,4.9371,4.9399,4.9403,4.942,4.9413,4.9398,4.9401,4.9364,4.9398,4.934,4.9385,4.9343,4.935,4.9342,4.9345,4.9344,4.9279,4.9375,4.9537,4.9551,4.9347,4.9345,4.9344,0,4.9426,4.945,4.9492,4.9492,4.9472,4.9493,4.9485,4.9475,4.9483,4.9488,4.9492,4.9501,4.9506,4.9514,4.948,4.9441,4.953,4.9469,4.9518,4.9519,4.9537,4.9536,4.9701,4.9546,4.9545,4.9545,4.9545,0,4.9549,4.9591,4.9543,4.9569,4.9614,4.9573,4.9619,4.9606,4.9598,4.962,4.9572,4.9594,4.9549,4.9567,4.9541,4.9582,4.9585,4.9574,4.9566,4.9577,4.9578,4.958,4.9571,4.9549,4.9548,4.9547,4.9547,0,4.9684,4.9654,4.9696,4.9674,4.9669,4.9704,4.9685,4.9708,4.9688,4.9717,4.9721,4.9689,4.9708,4.9676,4.9691,4.9673,4.973,4.9712,4.9732,4.9726,4.9777,4.9772,4.9947,4.9967,4.98,4.9802,4.9803,0,4.9763,4.9794,4.9776,4.9787,4.9783,4.9802,4.9809,4.977,4.978,4.9775,4.9799,4.9813,4.9822,4.9855,4.9833,4.9844,4.9825,4.9886,4.9827,4.9837,4.9825,4.9823,4.9825,4.9898,4.99,4.9901,4.9903,0,4.9907,4.9891,4.9903,4.9911,4.9921,4.9926,4.9927,4.9939,4.9897,4.9911,4.9929,4.9937,4.9952,4.9967,4.9973,4.9965,4.9927,4.9922,4.9934,4.9944,4.9954,4.9948,4.9764,4.9918,4.9916,4.9915,4.9914,4.9914,5.0015,5.004,5.0031,5.0047,5.0043,5.0046,5.0066,5.0049,5.0063,5.0072,5.0048,5.0072,5.0065,5.007,5.0067,5.0085,5.0058,5.0075,5.0079,5.0084,5.0091,4.9953,5.0086,5.0086,5.0085,5.0085,5.0084,0,5.0155,5.0146,5.0162,5.0164,5.0177,5.0141,5.014,5.0153,5.0175,5.0172,5.0182,5.0203,5.0218,5.0198,5.0209,5.0228,5.0211,5.0232,5.0229,5.0228,5.0115,5.0103,5.0245,5.0245,5.0245,5.0245,5.0245,5.0245,5.0229,5.0268,5.0252,5.029,5.0281,5.0304,5.0306,5.0308,5.0306,5.0331,5.0343,5.033,5.0321,5.0331,5.0343,5.0337,5.0342,5.0369,5.0357,5.0252,5.0236,5.0221,5.0209,5.0371,5.0372,5.0468,5.0469,5.047]}]]